Weather History for East Milton, MA

Change the Weather History Date:

Thursday, January 23, 2014

  Actual Average (KBOS) Record (KBOS)
Temperature  
Mean Temperature 9 °F 29 °F  
Max Temperature 18 °F 36 °F 68 °F (1906)
Min Temperature 0 °F 22 °F -6 °F (1882)
Degree Days  
Heating Degree Days 56 36  
Month to date heating degree days 824  
Since 1 July heating degree days 2818  
Cooling Degree Days 0 0  
Month to date cooling degree days 0  
Year to date cooling degree days 0  
Moisture  
Dew Point -6 °F    
Average Humidity 56    
Maximum Humidity 69    
Minimum Humidity 38    
Precipitation  
Precipitation 0.00 in 0.11 in 1.48 in (1966)
Month to date precipitation 2.52  
Year to date precipitation 2.52  
Sea Level Pressure  
Sea Level Pressure 30.04 in    
Wind  
Wind Speed 13 mph (West)    
Max Wind Speed 17 mph    
Max Gust Speed 29 mph    
T = Trace of Precipitation, MM = Missing Value Source: NWS Daily Summary

Daily Weather History Graph

Daily Weather History Graph

Search for Another Location

Airport:

Trip Planner

Search our weather history database for the weather conditions in past years. The results will help you decide how hot, cold, wet, or windy it might be!

Date:

Astronomy

Jan. 23, 2014 Rise Set
Actual Time 7:05 AM EST 4:47 PM EST
Civil Twilight 6:35 AM EST 5:17 PM EST
Nautical Twilight 6:01 AM EST 5:51 PM EST
Astronomical Twilight 5:28 AM EST 6:25 PM EST
Moon No Moon Rise 10:30 AM EST (1/23)
Length of Visible Light 10h 42m
Length of Day
9h 41m
Waning Gibbous, 55% of the Moon is Illuminated
Jan 23
Waning Gibbous
Jan 24
Last Quarter
Jan 30
New
Feb 6
First Quarter
Feb 14
Full

Hourly Weather History & Observations

Time (EST) Temp. Windchill Dew Point Humidity Pressure Visibility Wind Dir Wind Speed Gust Speed Precip Events Conditions
12:54 AM 3.0 °F -14.8 °F -6.0 °F 66% 29.90 in - NW 13.8 mph - N/A   Unknown
1:54 AM 3.0 °F -15.5 °F -7.1 °F 63% 29.92 in - NW 15.0 mph 23.0 mph N/A   Unknown
2:54 AM 1.9 °F -15.5 °F -7.1 °F 66% 29.94 in - NW 12.7 mph - N/A   Unknown
3:54 AM 1.9 °F -15.5 °F -7.1 °F 66% 29.95 in - NW 12.7 mph - N/A   Unknown
4:54 AM 1.0 °F -15.8 °F -7.1 °F 69% 29.96 in - NW 11.5 mph - N/A   Unknown
5:54 AM -0.0 °F -17.1 °F -9.0 °F 66% 29.98 in - West 11.5 mph - N/A   Unknown
6:54 AM -0.0 °F -18.0 °F -9.0 °F 66% 30.01 in - West 12.7 mph - N/A   Unknown
7:54 AM -0.0 °F -18.7 °F -9.0 °F 66% 30.01 in - West 13.8 mph - N/A   Unknown
8:54 AM 1.9 °F -13.8 °F -7.1 °F 66% 30.03 in - West 10.4 mph - N/A   Unknown
9:54 AM 6.1 °F -8.7 °F -7.1 °F 55% 30.05 in - West 10.4 mph - N/A   Unknown
10:54 AM 10.9 °F -1.8 °F -4.0 °F 51% 30.04 in - West 9.2 mph - N/A   Unknown
11:54 AM 15.1 °F 1.8 °F -4.0 °F 43% 30.01 in - West 11.5 mph - N/A   Unknown
12:54 PM 17.1 °F 5.8 °F -4.0 °F 39% 30.00 in - West 9.2 mph - N/A   Unknown
1:54 PM 18.0 °F 6.9 °F -4.0 °F 38% 30.00 in - WSW 9.2 mph 17.3 mph N/A   Unknown
2:54 PM 18.0 °F 5.4 °F -4.0 °F 38% 30.01 in - WSW 11.5 mph 19.6 mph N/A   Unknown
3:54 PM 16.0 °F 2.9 °F -2.9 °F 43% 30.03 in - WSW 11.5 mph 20.7 mph N/A   Unknown
4:54 PM 14.0 °F -2.0 °F -4.0 °F 45% 30.07 in - West 16.1 mph 23.0 mph N/A   Unknown
5:54 PM 12.9 °F -3.4 °F -6.0 °F 43% 30.10 in - West 16.1 mph 27.6 mph N/A   Unknown
6:54 PM 10.9 °F -6.5 °F -6.0 °F 47% 30.12 in - WNW 17.3 mph 28.8 mph N/A   Unknown
7:54 PM 9.0 °F -7.9 °F -5.1 °F 53% 30.14 in - WNW 15.0 mph 23.0 mph N/A   Unknown
8:54 PM 8.1 °F -9.6 °F -4.0 °F 58% 30.15 in - WNW 16.1 mph 23.0 mph N/A   Unknown
9:54 PM 7.0 °F -10.4 °F -2.9 °F 64% 30.16 in - West 15.0 mph - N/A   Unknown
10:54 PM 7.0 °F -9.1 °F -2.9 °F 64% 30.16 in - West 12.7 mph - N/A   Unknown
11:54 PM 6.1 °F -10.9 °F -4.0 °F 63% 30.16 in - West 13.8 mph - N/A   Unknown